Location: Bay Ridge
(40.6340°N, 74.0146°W)
Time: 12:23:55
(UTC+00:00)

DMSP B5D1-3 - Pass Details

Date: 15 November 2019
Orbit: 768 x 780 km, 98.5° (Epoch: 10 December)

Event Time Altitude Azimuth Distance (km) Brightness Sun altitude
Rises 10:49:50 0° 169° (SSE) 3,231 8.1 -10.2°
Reaches altitude 10° 10:52:08 10° 170° (S) 2,310 7.3 -9.8°
Maximum altitude 10:57:14 77° 257° (WSW) 798 4.5 -8.9°
Drops below altitude 10° 11:02:23 10° 344° (NNW) 2,335 6.7 -7.9°
Sets 11:04:43 0° 346° (NNW) 3,268 7.4 -7.5°
